Weather past 2 weeks in Mamoutzou, Mayotte

Now
72 °F

Passing clouds.


Feels Like: 67 °F
Forecast: 72 / 78 °F
Wind: No wind

Location: Dzaoudzi / Pamanzi Mayotte

Current Time: Sep 19, 2014 at 5:28:11 AM

Latest Report: Sep 19, 2014 at 5:00 AM


Visibility: N/A

Pressure: 30.01 "Hg

Humidity: 94%

Dew point: 70 °F

Location of MamoutzouLocation

Historic Weather in Mamoutzou — Graph

°F

Mamoutzou temperature yesterday

Maximum temperature yesterday: 86 °F (at 1:00 PM)
Minimum temperature yesterday: 73 °F (at 9:30 PM)
Average temperature yesterday: 79 °F

Past Weeks' High & Low Weather Summary

 TemperatureHumidityPressure
High86 °F (Sep 7, 11:30 AM)94% (Sep 5, 1:00 AM)30.12 "Hg (Sep 5, 1:00 AM)
Low70 °F (Sep 5, 12:30 AM)55% (Sep 7, 12:00 PM)29.95 "Hg (Sep 17, 3:00 AM)
Average78 °F74%30.04 "Hg
* Reported Sep 4 4:00 AM — Sep 19 4:30 AM, Mamoutzou, Weather by CustomWeather, © 2014

Note: Actual official high and low records may vary slightly from our data, if they occured in-between our weather recording intervals... More about our weather records

Advertising

Mamoutzou weather history for previous 24 hours

 ConditionsComfort  
Time TempWeatherWind HumidityBarometerVisibility
4:30 AM
Sep 19
73 °FPassing clouds.2 mph89%30.01 "HgN/A
4:00 AM73 °FPassing clouds.3 mph89%30.01 "HgN/A
3:30 AM73 °FPassing clouds.1 mph89%30.01 "Hg6 mi
3:00 AM73 °FPassing clouds.5 mph89%30.01 "HgN/A
2:30 AM72 °FMild.3 mph88%30.01 "HgN/A
2:00 AM72 °FPassing clouds.No wind88%30.01 "Hg4 mi
1:30 AM72 °FPassing clouds.No wind88%30.01 "HgN/A
1:00 AM72 °FMild.2 mph88%30.01 "HgN/A
12:30 AM73 °FMild.3 mph83%30.04 "HgN/A
12:00 AM73 °FMild.3 mph83%30.04 "HgN/A
11:30 PM
Sep 18
73 °FMild.3 mph83%30.04 "HgN/A
11:00 PM73 °FMild.3 mph83%30.04 "HgN/A
10:30 PM75 °FMild.5 mph83%30.04 "HgN/A
10:00 PM73 °FMild.1 mph83%30.04 "HgN/A
9:30 PM73 °FMild.2 mph78%30.04 "HgN/A
9:00 PM75 °FMild.3 mph74%30.04 "HgN/A
8:30 PM77 °FWarm.5 mph74%30.04 "HgN/A
8:00 PM77 °FWarm.5 mph74%30.04 "HgN/A
7:30 PM77 °FWarm.3 mph74%30.04 "HgN/A
7:00 PM77 °FWarm.3 mph74%30.04 "HgN/A
6:30 PM77 °FWarm.5 mph74%30.01 "HgN/A
6:00 PM79 °FPassing clouds.6 mph70%30.01 "HgN/A
5:30 PM79 °FPassing clouds.7 mph70%30.01 "HgN/A
5:00 PM81 °FPassing clouds.8 mph66%30.01 "HgN/A
4:30 PM81 °FPassing clouds.9 mph70%30.01 "HgN/A
4:00 PM81 °FPassing clouds.9 mph66%29.98 "HgN/A
3:30 PM84 °FPassing clouds.9 mph58%29.98 "HgN/A
3:00 PM86 °FPassing clouds.9 mph59%29.98 "HgN/A
2:30 PM84 °FPassing clouds.10 mph58%29.98 "HgN/A
2:00 PM86 °FPassing clouds.10 mph55%29.98 "HgN/A
1:30 PM86 °FPassing clouds.9 mph55%30.01 "HgN/A
1:00 PM86 °FScattered clouds.9 mph59%30.01 "HgN/A
12:34 PM84 °FScattered clouds.9 mph58%30.01 "HgN/A
12:00 PM84 °FScattered clouds.9 mph62%30.01 "HgN/A
11:30 AM82 °FScattered clouds.8 mph62%30.04 "HgN/A
11:00 AM82 °FScattered clouds.7 mph62%30.04 "HgN/A
10:30 AM84 °FScattered clouds.5 mph58%30.04 "HgN/A
10:00 AM84 °FScattered clouds.5 mph58%30.07 "HgN/A
9:30 AM84 °FScattered clouds.6 mph58%30.04 "HgN/A
9:00 AM82 °FPassing clouds.7 mph62%30.04 "HgN/A
8:30 AM82 °FPassing clouds.7 mph62%30.04 "HgN/A
8:00 AM81 °FPassing clouds.6 mph66%30.04 "HgN/A
7:30 AM79 °FPassing clouds.9 mph70%30.01 "HgN/A
7:00 AM77 °FPassing clouds.6 mph74%30.01 "HgN/A
6:30 AM75 °FPassing clouds.5 mph74%29.98 "HgN/A
6:00 AM75 °FPassing clouds.6 mph74%29.98 "HgN/A
5:30 AM75 °FPassing clouds.6 mph74%29.98 "HgN/A
5:00 AM75 °FMild.7 mph74%29.95 "HgN/A
Weather by CustomWeather, © 2014

See weather overviewHow to use our weather pages